[[{"header":{"parameterUnit":"m.s-1","parameterCategory":1,"la1":30.2991,"la2":30.254,"lo1":-89.0895,"lo2":-89.0444,"dy":0.0017,"dx":0.0017,"nx":28,"ny":28,"refTime":"2024-12-21T09:00:00:Z","depth":0,"parameterNumber":2,"parameterNumberName":"U-component_of_WINDS"},"data":[0,0,0,0,0,0,0,0,0,0,0,0,0,0,0,0,0,0,0,0,0,0,0,0,0,0,0,0,0,0,0,0,0,0,0,0,0,0,0,0,0,0,0,0,0,0,0,0,0,0,0,0,0,0,0,0,0,0,-1.846,-1.846,0,-1.8454,-1.8454,-1.8454,-1.8404,-1.8402,-1.8401,-1.84,-1.8397,-1.8398,-1.8399,0,0,0,0,0,0,0,0,0,0,0,0,0,-1.8428,-1.8429,-1.846,-1.846,-1.8459,-1.8454,-1.8454,-1.8454,-1.8404,-1.8402,-1.8401,-1.8399,-1.8397,-1.8398,-1.8399,0,0,0,0,0,0,0,0,0,0,0,0,0,-1.8434,-1.8429,-1.846,-1.8434,-1.8431,-1.8454,-1.8454,-1.8454,-1.8404,-1.8402,-1.84,-1.8399,-1.8396,-1.8398,-1.84,-1.8448,0,0,-1.8405,-1.8405,0,0,0,0,0,0,0,0,-1.8434,-1.8436,-1.8438,-1.8435,-1.8433,-1.8428,-1.8442,-1.8452,-1.8405,-1.8415,-1.84,-1.8398,-1.8409,-1.8409,-1.8413,-1.8448,-1.8448,-1.8405,-1.8406,-1.8406,-1.8407,0,0,0,0,0,0,0,-1.8434,-1.8436,-1.8458,-1.8438,-1.8435,-1.8423,-1.8422,-1.8444,-1.8423,-1.8414,-1.841,-1.841,-1.8407,-1.8411,-1.8412,-1.8448,-1.8405,-1.8406,-1.8407,-1.8408,-1.8523,-1.8525,0,0,0,0,0,0,-1.8437,-1.8436,-1.8458,-1.8457,-1.8429,-1.8425,-1.8424,-1.8431,-1.8422,-1.8419,-1.8411,-1.8407,-1.8409,-1.841,-1.8412,-1.8469,-1.8406,-1.8408,-1.8409,-1.8521,-1.8524,-1.8526,0,0,0,0,0,0,-1.8436,-1.8439,-1.8458,-1.8445,-1.8447,-1.8428,-1.8437,-1.8432,-1.8436,-1.8421,-1.8417,-1.8419,-1.8408,-1.841,-1.8439,-1.8468,-1.8409,-1.841,-1.8519,-1.8522,-1.8525,-1.8583,0,0,0,0,0,0,-1.8435,-1.8439,-1.8457,-1.8446,-1.8448,-1.8485,-1.8438,-1.8433,-1.8439,-1.8434,-1.8427,-1.8424,-1.8407,-1.8437,-1.8441,-1.847,-1.8412,-1.8516,-1.852,-1.8524,-1.8579,-1.8588,-1.8596,0,0,0,0,0,-1.8434,-1.8474,-1.8458,-1.8461,-1.8469,-1.8487,-1.8488,-1.8466,-1.8441,-1.8459,-1.8449,-1.8424,-1.8464,-1.8441,-1.8445,-1.8474,-1.8514,-1.8519,-1.8524,-1.8575,-1.8586,-1.8596,0,0,0,0,0,0,-1.8489,-1.8472,-1.8454,-1.8491,-1.8491,-1.8478,-1.85,-1.8479,-1.8486,-1.8481,-1.8454,-1.8453,-1.8488,-1.8483,-1.8458,-1.8521,-1.8485,-1.8491,-1.8523,-1.8533,-1.8542,-1.8543,-1.8413,0,0,0,0,0,-1.8505,-1.852,-1.8504,-1.8538,-1.8539,-1.852,-1.8526,-1.851,-1.8509,-1.8509,-1.8501,-1.8501,-1.8514,-1.8523,-1.8534,-1.8577,-1.8576,-1.86,-1.8608,-1.8615,-1.8621,-1.8645,-1.8656,-1.8541,-1.8541,-1.8541,0,0,-1.8539,-1.8531,-1.8542,-1.8549,-1.8547,-1.8564,-1.852,-1.8539,-1.8552,-1.8512,-1.854,-1.8534,-1.8533,-1.857,-1.8586,-1.8568,-1.8652,-1.8621,-1.8627,-1.8629,-1.8651,-1.8662,-1.8672,-1.8545,-1.8544,-1.8544,0,0,-1.8609,-1.8605,-1.8633,-1.8631,-1.8628,-1.8615,-1.8622,-1.8613,-1.8608,-1.8635,-1.8605,-1.862,-1.8642,-1.8643,-1.8646,-1.8718,-1.8695,-1.8722,-1.8767,-1.8791,-1.88,-1.8808,-1.8835,-1.8845,-1.8727,-1.8727,-1.8727,0,-1.8652,-1.8676,-1.865,-1.8672,-1.8676,-1.864,-1.8669,-1.8669,-1.867,-1.8674,-1.8653,-1.8681,-1.8678,-1.8715,-1.8733,-1.8736,-1.8744,-1.8723,-1.8801,-1.8808,-1.8815,-1.8841,-1.8851,-1.8731,-1.873,-1.873,-1.873,0,-1.8729,-1.8746,-1.8769,-1.877,-1.8777,-1.8803,-1.8782,-1.8792,-1.8775,-1.8765,-1.8794,-1.8788,-1.8798,-1.8805,-1.8788,-1.8841,-1.883,-1.8805,-1.8769,-1.883,-1.8853,-1.8863,-1.8736,-1.8734,-1.8733,-1.8732,0,0,-1.8834,-1.8821,-1.8831,-1.8831,-1.8825,-1.8838,-1.8862,-1.8871,-1.8881,-1.8882,-1.8903,-1.8922,-1.89,-1.8904,-1.8887,-1.8908,-1.8966,-1.8881,-1.888,-1.8898,-1.9025,-1.9045,-1.9056,-1.8951,-1.8952,-1.8954,-1.9026,0,-1.8903,-1.8943,-1.8921,-1.8965,-1.898,-1.8946,-1.8967,-1.8966,-1.8957,-1.897,-1.896,-1.8975,-1.8943,-1.8945,-1.8964,-1.8955,-1.8992,-1.8949,-1.8971,-1.8972,-1.8974,-1.9068,-1.9089,-1.9157,-1.9034,-1.9036,-1.9037,0,-1.8989,-1.8995,-1.9039,-1.9031,-1.9037,-1.9056,-1.9063,-1.9075,-1.9074,-1.9066,-1.907,-1.9049,-1.9073,-1.9036,-1.9069,-1.9041,-1.9049,-1.9045,-1.9048,-1.905,-1.9009,-1.9075,-1.9178,-1.9189,-1.9051,-1.905,-1.9049,0,-1.9064,-1.9082,-1.9111,-1.9112,-1.9103,-1.9118,-1.9115,-1.9111,-1.9118,-1.9124,-1.9128,-1.9137,-1.9143,-1.9151,-1.9133,-1.9107,-1.9169,-1.913,-1.9165,-1.9165,-1.9181,-1.918,-1.9288,-1.9183,-1.9183,-1.9183,-1.9182,0,-1.9144,-1.9173,-1.9144,-1.9163,-1.9195,-1.9169,-1.9202,-1.9195,-1.9193,-1.921,-1.918,-1.9197,-1.9172,-1.9186,-1.9172,-1.9203,-1.9205,-1.9201,-1.9197,-1.9204,-1.9205,-1.921,-1.9205,-1.9185,-1.9185,-1.9184,-1.9184,0,-1.9233,-1.9215,-1.9245,-1.9233,-1.9231,-1.9255,-1.9246,-1.9263,-1.9251,-1.9273,-1.9277,-1.926,-1.9276,-1.9258,-1.9273,-1.9263,-1.9305,-1.9294,-1.9306,-1.9303,-1.9339,-1.9337,-1.9455,-1.947,-1.9354,-1.9355,-1.9356,0,-1.9286,-1.9308,-1.9298,-1.9307,-1.9306,-1.9321,-1.9327,-1.9304,-1.9312,-1.9312,-1.933,-1.9343,-1.9352,-1.9379,-1.9369,-1.938,-1.937,-1.941,-1.9371,-1.9378,-1.9372,-1.9372,-1.9375,-1.9419,-1.942,-1.9421,-1.9422,0,-1.9383,-1.9373,-1.9383,-1.9391,-1.94,-1.9405,-1.9408,-1.9417,-1.9392,-1.9403,-1.9419,-1.9426,-1.9441,-1.9455,-1.9463,-1.9461,-1.9439,-1.9434,-1.9443,-1.9452,-1.9459,-1.9457,-1.9329,-1.9432,-1.9431,-1.943,-1.943,-1.943,-1.9456,-1.9474,-1.9471,-1.9484,-1.9483,-1.9487,-1.9503,-1.9493,-1.9505,-1.9515,-1.95,-1.952,-1.9519,-1.9527,-1.9528,-1.9544,-1.9527,-1.9539,-1.9542,-1.9546,-1.9552,-1.9455,-1.9545,-1.9545,-1.9544,-1.9544,-1.9544,0,-1.9553,-1.9549,-1.9561,-1.9566,-1.9577,-1.9553,-1.9555,-1.9566,-1.9583,-1.9584,-1.9593,-1.9612,-1.9625,-1.9616,-1.9627,-1.9642,-1.9632,-1.9646,-1.9646,-1.9646,-1.9566,-1.9558,-1.9654,-1.9654,-1.9654,-1.9654,-1.9654,-1.9654,-1.9605,-1.9634,-1.9624,-1.9653,-1.9649,-1.9668,-1.9671,-1.9675,-1.9675,-1.9697,-1.9708,-1.9701,-1.9698,-1.9709,-1.9721,-1.9717,-1.9724,-1.9742,-1.9736,-1.9662,-1.9651,-1.9641,-1.9633,-1.9743,-1.9743,-1.9814,-1.9815,-1.9815]},{"header":{"parameterUnit":"m.s-1","parameterCategory":1,"la1":30.2991,"la2":30.254,"lo1":-89.0895,"lo2":-89.0444,"dy":0.0017,"dx":0.0017,"nx":28,"ny":28,"refTime":"2024-12-21T09:00:00:Z","depth":0,"parameterNumber":3,"parameterNumberName":"V-component_of_WINDS"},"data":[0,0,0,0,0,0,0,0,0,0,0,0,0,0,0,0,0,0,0,0,0,0,0,0,0,0,0,0,0,0,0,0,0,0,0,0,0,0,0,0,0,0,0,0,0,0,0,0,0,0,0,0,0,0,0,0,0,0,-1.7255,-1.7256,0,-1.7308,-1.7309,-1.731,-1.7307,-1.7306,-1.7306,-1.7305,-1.7359,-1.7361,-1.7363,0,0,0,0,0,0,0,0,0,0,0,0,0,-1.715,-1.7152,-1.7255,-1.7256,-1.7256,-1.7308,-1.7309,-1.731,-1.7307,-1.7306,-1.7306,-1.7305,-1.7358,-1.736,-1.7363,0,0,0,0,0,0,0,0,0,0,0,0,0,-1.7199,-1.7153,-1.7255,-1.7261,-1.7263,-1.7308,-1.7309,-1.731,-1.7308,-1.7306,-1.7305,-1.7304,-1.7357,-1.736,-1.7363,-1.7406,0,0,-1.7373,-1.7374,0,0,0,0,0,0,0,0,-1.7196,-1.7203,-1.726,-1.7261,-1.7262,-1.73,-1.7292,-1.7342,-1.7308,-1.729,-1.7305,-1.7304,-1.734,-1.7344,-1.7357,-1.7408,-1.741,-1.7373,-1.7375,-1.7377,-1.7378,0,0,0,0,0,0,0,-1.7193,-1.72,-1.7276,-1.7261,-1.7262,-1.7261,-1.7267,-1.7301,-1.7321,-1.7292,-1.7292,-1.7298,-1.734,-1.7354,-1.7358,-1.7411,-1.7373,-1.7376,-1.7378,-1.7379,-1.7501,-1.7502,0,0,0,0,0,0,-1.7188,-1.7198,-1.7274,-1.7278,-1.7226,-1.7264,-1.7271,-1.7289,-1.732,-1.7324,-1.7299,-1.7298,-1.7349,-1.7354,-1.736,-1.7413,-1.7377,-1.738,-1.7381,-1.75,-1.7501,-1.7503,0,0,0,0,0,0,-1.7186,-1.7195,-1.7272,-1.7238,-1.7247,-1.7267,-1.7288,-1.7291,-1.7304,-1.7326,-1.7329,-1.7309,-1.7348,-1.7356,-1.7395,-1.7415,-1.7381,-1.7384,-1.7498,-1.75,-1.7502,-1.7518,0,0,0,0,0,0,-1.7183,-1.7194,-1.7211,-1.7238,-1.7249,-1.7306,-1.7289,-1.7293,-1.731,-1.7309,-1.7336,-1.734,-1.7348,-1.739,-1.7398,-1.7419,-1.7386,-1.7496,-1.7499,-1.7501,-1.7516,-1.752,-1.7524,0,0,0,0,0,-1.7179,-1.7213,-1.7211,-1.7221,-1.727,-1.7307,-1.7314,-1.7323,-1.7311,-1.7328,-1.7342,-1.7339,-1.7411,-1.7394,-1.7403,-1.7425,-1.7495,-1.7498,-1.7501,-1.7514,-1.752,-1.7524,0,0,0,0,0,0,-1.7186,-1.7216,-1.7215,-1.7259,-1.7281,-1.7307,-1.7328,-1.7328,-1.7353,-1.7351,-1.736,-1.7367,-1.7406,-1.7419,-1.74,-1.7468,-1.7452,-1.7456,-1.7458,-1.7464,-1.7468,-1.7465,-1.7389,0,0,0,0,0,-1.7193,-1.7221,-1.7245,-1.7281,-1.7292,-1.7308,-1.7325,-1.733,-1.7353,-1.7362,-1.7379,-1.7401,-1.7428,-1.7446,-1.7473,-1.7517,-1.7524,-1.7537,-1.7541,-1.7544,-1.7549,-1.7574,-1.7581,-1.7512,-1.7512,-1.7512,0,0,-1.7207,-1.7227,-1.7244,-1.7283,-1.7301,-1.733,-1.7316,-1.7347,-1.7369,-1.7366,-1.7405,-1.7418,-1.7443,-1.7485,-1.7505,-1.7497,-1.7569,-1.7548,-1.755,-1.7553,-1.7578,-1.7585,-1.759,-1.7514,-1.7514,-1.7514,0,0,-1.7248,-1.7265,-1.7298,-1.7316,-1.7343,-1.7353,-1.7361,-1.7388,-1.7397,-1.7435,-1.7435,-1.746,-1.7507,-1.7526,-1.7541,-1.7589,-1.7588,-1.7597,-1.762,-1.7645,-1.765,-1.7655,-1.7674,-1.768,-1.7601,-1.7601,-1.7601,0,-1.7262,-1.7306,-1.7315,-1.7346,-1.7364,-1.7363,-1.7397,-1.7413,-1.7447,-1.746,-1.745,-1.751,-1.7527,-1.7574,-1.7586,-1.7598,-1.7608,-1.7595,-1.7649,-1.7654,-1.7658,-1.7676,-1.7683,-1.7603,-1.7602,-1.7602,-1.7602,0,-1.7323,-1.7353,-1.7376,-1.741,-1.743,-1.7462,-1.7476,-1.7495,-1.7498,-1.7509,-1.7549,-1.7569,-1.76,-1.7611,-1.7614,-1.7659,-1.7654,-1.7647,-1.7631,-1.7666,-1.7683,-1.769,-1.7604,-1.7604,-1.7603,-1.7603,0,0,-1.7371,-1.741,-1.7418,-1.7434,-1.7464,-1.7487,-1.7519,-1.755,-1.7567,-1.759,-1.7618,-1.7658,-1.7651,-1.7669,-1.7674,-1.7695,-1.7734,-1.7685,-1.7686,-1.7695,-1.7787,-1.7794,-1.7801,-1.7732,-1.7734,-1.7735,-1.7785,0,-1.7417,-1.7475,-1.7483,-1.7534,-1.7563,-1.7563,-1.7591,-1.7612,-1.7623,-1.7649,-1.7661,-1.769,-1.7679,-1.769,-1.7711,-1.7725,-1.7753,-1.7721,-1.7759,-1.7761,-1.7755,-1.781,-1.7817,-1.7864,-1.7792,-1.7793,-1.7794,0,-1.7478,-1.7504,-1.7558,-1.7585,-1.7597,-1.7622,-1.7652,-1.7676,-1.77,-1.7707,-1.7727,-1.7729,-1.7762,-1.7744,-1.779,-1.7769,-1.7784,-1.7794,-1.7796,-1.7801,-1.7781,-1.7819,-1.7879,-1.7886,-1.7804,-1.7803,-1.7802,0,-1.751,-1.7558,-1.7597,-1.761,-1.7642,-1.766,-1.7674,-1.7697,-1.7715,-1.774,-1.7753,-1.7781,-1.7797,-1.7819,-1.7829,-1.7815,-1.7876,-1.7858,-1.7883,-1.7883,-1.7898,-1.7897,-1.7963,-1.7905,-1.7905,-1.7904,-1.7904,0,-1.7561,-1.7594,-1.7612,-1.7636,-1.7674,-1.7683,-1.772,-1.7733,-1.7754,-1.778,-1.7781,-1.7806,-1.7817,-1.7844,-1.7851,-1.789,-1.7896,-1.7903,-1.7905,-1.7904,-1.7904,-1.7916,-1.7914,-1.7906,-1.7906,-1.7906,-1.7905,0,-1.7604,-1.7617,-1.766,-1.7686,-1.7694,-1.772,-1.7743,-1.7767,-1.7777,-1.7811,-1.782,-1.7837,-1.7869,-1.788,-1.7918,-1.7924,-1.7969,-1.7967,-1.7961,-1.7962,-1.7988,-1.7986,-1.8066,-1.8077,-1.8009,-1.801,-1.801,0,-1.7636,-1.7662,-1.7692,-1.771,-1.7725,-1.7754,-1.7774,-1.7783,-1.7803,-1.7832,-1.7853,-1.7884,-1.791,-1.796,-1.7976,-1.8006,-1.8006,-1.8032,-1.801,-1.8009,-1.8009,-1.8008,-1.8011,-1.8036,-1.8037,-1.8038,-1.8038,0,-1.7694,-1.7699,-1.7727,-1.7757,-1.778,-1.7804,-1.7827,-1.7842,-1.7855,-1.7877,-1.791,-1.793,-1.7969,-1.8001,-1.8031,-1.8045,-1.8045,-1.8044,-1.8052,-1.8053,-1.8049,-1.8053,-1.7974,-1.8043,-1.8043,-1.8042,-1.8042,-1.8042,-1.7734,-1.7758,-1.7783,-1.7814,-1.7832,-1.7854,-1.7878,-1.7892,-1.792,-1.7953,-1.7957,-1.7992,-1.8016,-1.8056,-1.8072,-1.81,-1.8093,-1.8104,-1.8107,-1.811,-1.8113,-1.8043,-1.8105,-1.8105,-1.8105,-1.8104,-1.8104,0,-1.7793,-1.7809,-1.7837,-1.7871,-1.7895,-1.7892,-1.7917,-1.7938,-1.797,-1.7992,-1.8018,-1.8056,-1.8086,-1.8105,-1.8135,-1.8154,-1.8155,-1.8162,-1.8162,-1.8166,-1.8116,-1.8107,-1.8162,-1.8162,-1.8162,-1.8162,-1.8162,-1.8162,-1.7827,-1.7867,-1.7875,-1.7925,-1.7941,-1.7976,-1.7991,-1.8012,-1.803,-1.8072,-1.8098,-1.811,-1.8131,-1.8163,-1.8191,-1.8196,-1.8208,-1.8217,-1.8221,-1.8175,-1.8169,-1.8163,-1.8155,-1.8219,-1.8219,-1.8268,-1.8269,-1.8269]}]]